[Iaude] MPEC H02: 2024 GH6 [a=2.42,e=0.52,i=19.4,H=20.6]

mpec at cfa.harvard.edu mpec at cfa.harvard.edu
Tue Apr 16 03:47:52 EDT 2024


M.P.E.C. 2024-H02                                Issued 2024 April 16, 07:46 UT

     The Minor Planet Electronic Circulars contain information on unusual
         minor planets, routine data on comets and natural satellites,
         and occasional editorial announcements.  They are published
    on behalf of Division F of the International Astronomical Union by the
          Minor Planet Center, Smithsonian Astrophysical Observatory,
                          Cambridge, MA 02138, U.S.A.
			  
             Prepared using the Tamkin Foundation Computer Network

                              MPC at CFA.HARVARD.EDU
            URL https://www.minorplanetcenter.net/    ISSN 1523-6714

                                    2024 GH6                                    


Observations:
     K24G06H*1C2024 04 14.32337814 17 44.808+43 04 48.32         21.64GVEH002G96
     K24G06H 1C2024 04 14.32915814 17 44.675+43 04 55.45         20.87GVEH002G96
     K24G06H 1C2024 04 14.33476814 17 44.621+43 05 02.87         21.32GVEH002G96
     K24G06H 1C2024 04 14.34056314 17 44.524+43 05 10.72         21.54GVEH002G96
     K24G06H  C2024 04 14.35772514 17 44.175+43 05 31.84         21.1 GVEH002H01
     K24G06H  C2024 04 14.36145214 17 44.119+43 05 36.60         21.3 GVEH002H01
     K24G06H  C2024 04 14.38149414 17 43.786+43 06 02.15         21.3 GVEH002H01
     K24G06H  C2024 04 14.38671414 17 43.702+43 06 08.78         21.4 GVEH002H01
     K24G06H KC2024 04 14.44125014 17 42.922+43 07 18.16         22.10GVEH002I52
     K24G06H KC2024 04 15.19893014 17 36.683+43 23 20.72         21.52GVEH002I52
     K24G06H KC2024 04 15.20990914 17 36.557+43 23 34.91         21.04GVEH002I52
     K24G06H KC2024 04 15.22086714 17 36.359+43 23 49.49         21.91GVEH002I52
     K24G06H KC2024 04 15.22726514 17 35.85 +43 23 57.8          21.6 GVEH002H21
     K24G06H KC2024 04 15.23183514 17 36.179+43 24 03.60         21.32GVEH002I52
     K24G06H KC2024 04 15.23593314 17 35.66 +43 24 08.4          22.2 GVEH002H21
     K24G06H KC2024 04 15.24143114 17 35.55 +43 24 15.1          22.3 GVEH002H21
     K24G06H KC2024 04 16.28762514 17 23.669+43 45 51.70         21.36GVEH002I52
     K24G06H KC2024 04 16.29227114 17 23.608+43 45 57.31         21.30GVEH002I52
     K24G06H KC2024 04 16.29692914 17 23.474+43 46 03.36         21.32GVEH002I52
     K24G06H KC2024 04 16.30158614 17 23.464+43 46 09.62         21.40GVEH002I52

Observer details:
G96 Mt. Lemmon Survey.  Observer K. W. Wierzchos.  Measurers T. Beuden, V. F.
    Carvajal, D. Fay, J. B. Fazekas, D. C. Fuls, A. R. Gibbs, A. D. Grauer, H.
    Groeller, J. K. Hogan, R. A. Kowalski, S. M. Larson, G. J. Leonard, D.
    Rankin, R. L. Seaman, F. C. Shelly, K. W. Wierzchos.  1.5-m reflector +
    10K CCD.
H01 Magdalena Ridge Observatory, Socorro.  Observers W. H. Ryan, E. V. Ryan.
    Measurer W. H. Ryan.  2.4-m f/8.9 Ritchey-Chretien + CCD.
H21 Astronomical Research Observatory, Westfield.  Observer R. Holmes.
    Measurers T. Linder, R. Holmes, L. Horn.  0.76-m f/3.0 astrograph + CCD.
I52 Steward Observatory, Mt. Lemmon Station.  Observers D. Rankin, J. B.
    Fazekas, T. Beuden.  Measurers T. Beuden, V. F. Carvajal, D. Fay, J. B.
    Fazekas, D. C. Fuls, A. R. Gibbs, A. D. Grauer, H. Groeller, J. K. Hogan,
    R. A. Kowalski, S. M. Larson, G. J. Leonard, D. Rankin, R. L. Seaman, F.
    C. Shelly, K. W. Wierzchos.  1.0-m prime focus + CCD.

Orbital elements:
2024 GH6                                                 Earth MOID = 0.1774 AU
Epoch 2024 Mar. 31.0 TT = JDT 2460400.5                 MPC                     
M 335.82589              (2000.0)            P               Q                  
n   0.26176252     Peri.  148.04788     -0.03413584     +0.95583015             
a   2.4202733      Node   118.48126     -0.97257098     +0.03547793             
e   0.5235745      Incl.   19.39792     -0.23008790     -0.29177053             
P   3.77           H   20.66          G   0.15           U   9                  
Residuals in seconds of arc
240414 G96  0.0   0.2+    240414 H01  0.0   0.1-    240415 H21  0.2-  0.0
240414 G96  0.4-  0.2-    240414 I52  0.4+  0.2-    240415 H21  0.3-  0.3-
240414 G96  0.0   0.0     240415 I52  0.1-  0.1-    240416 I52  0.1-  0.2-
240414 G96  0.0   0.4+    240415 I52  0.3+  0.2-    240416 I52  0.2+  0.3-
240414 H01  0.0   0.1-    240415 I52  0.1+  0.2+    240416 I52  0.3-  0.0
240414 H01  0.1+  0.1-    240415 H21  0.3+  0.4+    240416 I52  0.6+  0.6+
240414 H01  0.0   0.1-    240415 I52  0.1+  0.1+

Ephemeris:
2024 GH6                 a,e,i = 2.42, 0.52, 19                  q = 1.1531
Date    TT    R. A. (2000) Decl.     Delta      r    Elong.  Phase     V
2024 03 17    14 10 33.5 +30 38 02   0.7617  1.6267   135.2    25.5    22.3
...
2024 04 01    14 17 23.7 +37 35 42   0.6634  1.5274   132.4    28.9    22.0
...
2024 04 09    14 18 13.6 +41 02 32   0.6235  1.4760   129.0    31.8    21.8
...
2024 04 15    14 17 37.9 +43 19 09   0.5980  1.4385   126.0    34.4    21.8
2024 04 16    14 17 26.8 +43 39 56   0.5941  1.4323   125.5    34.8    21.7
2024 04 17    14 17 14.3 +44 00 06   0.5902  1.4262   124.9    35.2    21.7
...
2024 04 23    14 15 36.4 +45 47 03   0.5682  1.3903   121.6    38.0    21.7
...
2024 05 01    14 12 48.7 +47 27 56   0.5412  1.3447   117.3    41.7    21.6
...
2024 05 16    14 08 47.8 +48 09 40   0.4924  1.2685   110.2    48.4    21.5

A. U. Tomatic                (C) Copyright 2024 MPC           M.P.E.C. 2024-H02





More information about the Iaude mailing list